Theta_e
324 325 325 325 325 325 323 322 323 321 322 323 322 322 320 319 318 317 318 318 319 320 322 324 324 327 329 331 333 334 334 333 333 333 332 333 333 332 330 330 329 328 327 326
323 324 321 321 321 324 324 324 324 321 321 322 321 322 320 318 318 317 318 318 318 318 317 319 322 324 327 328 331 333 334 334 333 333 333 332 332 332 331 330 330 329 329 327
323 321 320 321 322 323 323 325 322 323 321 321 321 322 320 319 318 317 317 318 318 318 318 316 316 319 324 328 329 330 332 333 334 333 333 333 333 333 332 331 331 330 330 329
322 320 320 320 322 321 324 321 321 322 323 324 321 322 320 318 317 317 316 316 315 315 316 316 317 318 319 325 326 327 328 330 332 333 334 334 334 333 332 331 331 331 330 329
320 320 321 322 321 319 321 319 321 322 323 323 322 321 319 318 317 317 316 315 315 315 316 317 316 319 319 319 319 324 326 328 329 331 333 334 334 333 332 331 330 330 330 330
319 316 319 320 319 320 320 322 322 322 323 326 322 321 319 317 317 317 316 316 316 315 315 314 317 317 317 316 318 318 318 322 326 328 330 332 334 333 332 331 331 331 331 331
318 317 316 316 321 320 321 323 326 327 326 326 320 322 320 317 316 316 316 315 315 313 314 315 312 313 313 313 313 313 316 319 319 322 326 329 332 333 332 332 331 331 330 331
320 319 317 316 319 321 322 323 324 327 326 320 316 318 317 316 315 315 315 315 314 313 311 310 311 311 311 312 312 310 311 314 317 318 321 326 328 331 333 332 332 330 330 330
319 320 315 315 315 317 320 323 321 322 314 317 317 317 315 313 313 313 314 313 311 310 311 310 310 311 311 311 311 310 309 309 312 315 318 320 325 328 330 331 332 331 331 331
318 320 318 317 317 317 317 317 320 321 324 320 315 314 313 314 314 313 312 311 312 312 312 310 309 311 312 312 312 311 310 309 309 310 314 318 320 324 327 329 330 331 331 330
317 317 318 318 320 320 320 322 320 320 320 320 316 313 314 314 313 312 313 312 309 308 308 308 308 310 310 311 311 311 310 309 308 308 311 314 317 321 324 326 328 329 329 330
316 317 318 318 313 313 317 318 319 320 319 316 317 316 313 312 312 312 311 309 308 308 308 307 307 309 309 309 309 310 310 310 309 308 308 316 314 317 323 325 326 327 328 328
316 318 318 317 316 315 318 317 317 317 317 318 317 313 312 311 311 312 310 309 307 308 308 306 306 306 305 306 306 306 308 310 310 308 308 312 319 319 320 322 325 325 326 327
314 316 315 315 316 317 320 318 318 319 319 319 317 315 313 312 312 311 309 308 308 306 306 304 303 303 304 303 303 304 304 305 309 309 308 307 314 321 322 323 324 324 324 323
314 314 314 313 311 316 316 318 318 320 318 318 317 316 314 313 312 310 309 309 307 305 304 303 302 302 301 301 301 300 301 302 304 306 308 307 307 312 317 321 322 322 321 322
313 314 313 311 312 313 315 316 317 317 317 317 317 314 312 311 310 308 307 307 304 301 300 300 299 298 298 298 298 297 299 300 299 302 306 307 306 307 306 312 316 317 318 318
313 314 313 314 312 311 307 311 314 315 316 315 317 314 313 311 307 304 302 300 298 297 296 296 296 295 295 295 295 295 296 295 296 298 303 306 306 306 305 305 306 306 309 311
313 312 312 307 313 314 309 307 312 313 313 313 313 313 304 303 302 297 294 293 293 293 293 292 292 292 292 293 292 291 292 291 292 296 299 302 304 304 303 302 303 301 301 301
312 311 309 311 313 308 306 303 307 309 307 298 301 298 297 296 299 295 290 289 290 290 289 289 289 289 289 290 289 288 289 289 290 293 293 294 297 299 300 299 299 300 299 300
311 311 308 307 309 305 302 300 301 307 305 293 294 292 292 294 301 297 287 287 286 286 286 287 286 285 286 286 286 285 287 287 288 290 289 291 292 294 296 297 298 299 300 300
312 311 310 306 304 305 299 297 300 301 300 289 288 287 287 289 287 285 285 284 283 283 284 284 283 282 283 282 282 284 285 285 286 285 286 289 291 293 294 296 298 299 299 299
311 312 310 309 311 307 288 295 301 290 285 284 284 283 282 282 282 282 281 281 281 281 281 280 279 280 279 278 280 281 281 281 281 281 283 287 290 293 295 297 298 298 297 296
304 306 305 304 301 286 283 283 281 282 282 280 280 279 279 279 279 278 279 278 279 279 278 277 277 276 276 276 276 276 276 277 277 278 281 285 289 292 294 295 296 295 294 294
297 291 298 296 292 285 282 279 278 279 278 277 276 276 276 276 276 276 276 277 277 276 275 275 273 273 273 272 272 272 273 273 274 275 279 284 288 291 292 292 293 293 292 292
287 289 293 290 287 285 280 277 276 276 275 274 273 273 273 274 274 274 275 274 274 273 272 271 271 271 270 270 269 270 271 271 271 274 278 283 287 289 289 290 290 291 291 292
277 278 291 292 277 279 277 274 272 272 272 271 271 271 271 272 272 272 272 272 272 270 269 269 268 268 268 268 268 269 269 270 271 274 279 284 286 287 288 287 287 287 289 290
Wind_Speed
6 6 18 17 13 13 14 14 11 9 3 2 6 11 10 12 10 9 8 9 9 9 9 16 14 24 27 26 27 29 30 32 32 32 31 29 31 32 31 29 28 28 29 30
7 19 21 8 15 16 17 17 18 10 7 2 7 14 13 15 14 11 11 11 11 10 11 17 20 24 31 31 31 32 33 34 37 33 35 32 31 30 34 33 32 31 32 32
15 14 14 14 16 16 18 17 14 13 7 2 5 15 13 14 21 22 21 18 13 13 12 9 13 20 28 31 32 32 31 30 30 31 27 26 25 27 27 31 36 40 38 36
14 18 13 18 19 17 17 10 9 10 3 6 3 10 8 8 14 14 6 7 9 9 9 8 11 17 12 27 31 32 33 34 32 31 30 29 29 28 34 33 35 34 40 41
7 9 21 16 25 10 16 5 8 12 10 4 12 5 8 3 10 10 10 9 8 8 5 4 7 9 8 7 7 18 32 31 32 31 34 33 32 30 28 30 29 35 35 41
7 2 4 11 10 10 2 7 7 5 4 8 23 8 21 12 12 12 8 5 1 8 8 8 10 7 7 10 12 15 18 21 27 30 35 36 34 32 27 29 28 30 33 36
8 5 1 2 2 3 7 8 4 6 6 11 10 10 18 10 9 4 5 6 5 7 6 5 6 8 10 11 11 13 14 21 25 27 34 35 36 34 33 32 29 28 29 30
12 10 16 9 5 7 12 13 5 5 5 6 7 9 8 2 3 2 1 4 6 8 8 6 6 9 13 14 14 14 15 18 19 23 29 34 36 34 34 33 31 29 31 32
10 9 3 14 7 10 2 10 5 1 1 2 5 6 5 8 6 3 2 7 9 8 6 6 8 14 15 17 17 16 17 18 19 21 24 29 32 34 33 34 32 33 33 33
10 5 6 7 7 9 6 9 4 2 5 3 4 5 4 6 9 8 9 9 6 4 1 3 4 9 15 15 21 15 16 19 20 20 21 23 28 30 35 34 34 34 33 34
9 4 4 4 7 8 6 4 7 6 3 1 1 4 4 7 14 10 8 5 6 7 6 6 8 18 21 24 26 27 24 20 22 20 20 20 24 26 29 32 35 35 35 33
10 3 4 9 2 4 5 4 8 3 4 2 3 5 6 10 9 9 7 6 5 6 5 4 11 19 21 25 28 31 30 28 23 22 22 21 21 23 24 28 29 29 30 32
12 4 4 4 2 3 5 9 11 6 2 6 4 4 4 8 7 7 7 6 5 4 6 8 11 15 21 24 27 29 32 34 28 24 23 22 20 18 20 22 23 24 24 26
15 4 5 8 4 7 6 10 8 5 3 2 8 6 1 7 8 3 7 6 4 5 11 9 8 12 19 23 27 30 32 33 36 28 24 24 20 17 16 16 17 18 20 23
9 6 5 5 7 6 9 13 14 13 10 6 16 19 14 7 4 4 2 2 7 12 13 13 13 13 22 26 30 35 34 34 35 36 30 27 24 20 18 17 16 16 17 18
6 1 6 2 1 6 6 16 18 22 22 14 18 18 5 7 4 10 10 12 12 12 13 14 14 19 23 26 29 35 35 36 38 36 33 31 27 26 20 17 17 16 17 19
7 5 5 6 6 6 5 11 13 14 18 15 17 20 5 5 10 11 11 13 12 13 14 14 14 20 26 29 30 31 36 39 38 35 34 34 31 30 23 19 18 15 15 15
9 8 2 3 6 8 5 6 16 16 11 8 11 14 9 6 6 12 14 12 12 13 14 13 20 24 27 30 31 33 33 34 35 35 32 34 31 30 25 20 17 13 12 9
7 4 3 4 4 5 3 3 6 7 2 10 7 10 9 9 3 8 14 12 10 12 17 20 24 25 29 28 29 34 34 33 33 31 31 34 31 27 23 18 14 11 10 10
1 3 4 2 3 6 1 2 5 5 3 8 8 9 10 11 2 3 16 14 15 19 20 23 26 28 28 30 32 32 29 32 32 30 35 33 29 24 21 18 15 12 11 10
5 4 6 4 3 3 3 8 8 5 2 6 7 7 9 4 4 15 16 17 20 23 24 26 25 26 26 30 31 31 29 28 30 36 36 34 31 27 23 19 17 14 12 10
6 7 3 3 3 6 7 3 3 3 8 7 6 8 8 9 12 12 14 16 23 24 27 27 27 26 28 29 28 29 30 31 33 33 35 34 32 26 22 18 16 14 12 11
3 3 5 2 2 6 11 14 10 8 6 7 7 8 10 12 12 13 13 14 19 25 26 27 26 29 26 27 27 30 32 34 33 34 33 32 31 25 20 17 15 13 13 14
2 3 4 5 4 7 11 11 10 8 8 8 9 9 10 12 13 14 14 15 19 22 25 28 30 28 28 28 29 30 33 32 33 32 31 30 26 24 16 14 13 14 15 14
0 3 5 5 7 9 9 10 8 8 8 9 10 10 11 13 13 13 14 18 22 24 25 27 26 27 29 31 32 33 32 33 31 29 30 26 23 18 11 7 6 10 11 13
3 2 3 3 4 2 7 7 9 9 10 10 11 12 15 15 13 19 17 20 21 24 26 25 26 26 30 31 32 34 33 31 30 27 24 22 21 12 8 10 14 10 6 7
Wind_Direction
195 206 223 218 219 243 265 270 263 266 276 210 236 266 272 281 275 267 257 238 248 265 266 271 236 213 214 219 220 218 212 213 211 215 217 220 220 220 224 226 230 225 224 226
188 224 227 231 229 233 247 256 263 278 121 131 282 274 276 282 281 266 260 258 253 252 252 246 246 224 207 216 221 223 220 214 213 212 214 215 218 219 220 222 227 230 226 224
213 232 218 225 234 240 244 241 253 269 291 244 295 275 265 252 248 253 247 246 249 253 257 255 252 250 207 210 219 226 232 226 222 218 218 217 223 226 223 222 226 228 225 223
226 239 238 215 231 219 242 230 254 269 315 264 215 287 225 297 292 286 279 236 225 249 254 245 244 262 252 219 227 230 235 232 230 227 221 215 214 215 219 223 222 222 223 226
198 232 217 233 225 221 254 225 228 247 254 267 253 272 261 288 272 269 267 231 244 251 251 51 36 38 12 338 290 245 235 234 233 228 227 224 225 228 225 226 227 224 224 227
226 60 290 255 233 226 266 254 261 255 228 237 241 198 277 256 253 252 250 175 155 68 56 46 16 5 349 338 311 280 267 252 242 236 233 230 227 229 228 230 229 226 220 224
176 180 232 25 170 279 235 182 226 205 187 235 173 193 237 296 288 292 274 280 45 73 71 45 36 7 352 355 339 317 293 267 254 250 242 237 235 232 232 232 230 229 226 224
208 211 198 156 223 201 211 223 213 226 189 224 139 224 229 95 236 194 2 42 65 61 69 47 0 337 342 346 342 329 315 292 277 256 250 244 239 238 237 238 234 233 232 232
184 220 127 174 153 152 185 207 254 160 310 88 197 243 282 248 265 34 357 63 77 66 37 3 354 345 339 333 327 330 325 310 297 281 269 255 246 237 237 240 240 238 240 239
181 178 185 159 168 191 178 151 205 247 138 204 229 222 227 161 130 89 84 95 101 110 158 318 327 312 317 318 330 316 331 320 307 295 279 275 258 250 241 240 241 240 243 242
179 178 154 139 202 179 186 183 207 182 211 297 81 249 94 83 125 122 119 116 51 30 38 9 3 10 4 357 353 346 332 328 324 310 296 280 269 262 254 246 244 244 243 244
207 166 166 188 23 307 283 222 196 190 225 275 101 268 86 117 119 123 110 80 23 32 32 10 24 16 11 358 353 349 341 333 325 320 306 295 282 273 265 255 253 253 250 247
172 175 130 176 338 284 230 221 232 204 42 194 143 281 82 127 136 161 123 69 42 6 4 38 31 16 1 355 353 347 341 335 330 317 318 306 294 281 272 267 260 260 260 257
148 149 198 210 176 143 199 206 212 165 165 180 217 259 115 185 186 70 63 56 352 27 50 29 16 6 0 352 350 346 341 338 331 320 313 310 302 290 282 273 267 263 262 262
169 201 204 236 117 186 193 196 196 209 216 186 234 240 245 253 3 73 27 122 49 44 29 15 3 357 355 350 346 342 337 336 334 326 309 309 305 295 281 267 256 256 258 259
181 219 171 297 179 246 234 198 197 204 220 234 256 265 246 320 64 40 28 45 31 21 18 5 356 353 350 345 341 336 333 333 332 323 313 307 304 294 289 279 266 260 260 263
166 148 154 201 128 68 308 229 211 222 229 221 241 257 297 356 49 33 48 46 28 7 358 353 349 343 339 336 336 334 330 328 327 323 317 310 304 299 283 279 279 273 261 262
147 137 135 140 125 215 256 156 205 212 229 245 262 286 44 48 38 76 46 31 11 357 348 341 339 335 333 330 331 332 330 330 327 323 324 326 313 300 288 279 278 280 278 270
157 132 121 159 193 307 171 172 143 166 167 14 4 31 14 343 176 86 36 16 351 351 337 331 332 330 329 329 331 331 325 328 327 325 331 327 320 308 291 276 275 271 270 270
101 201 158 140 185 198 28 27 328 108 211 17 29 31 359 326 207 120 356 352 348 341 333 333 332 332 329 332 330 327 322 325 325 324 323 318 315 303 289 279 270 259 261 264
152 141 191 167 207 293 347 322 317 111 196 63 37 32 9 19 352 317 332 337 334 329 334 336 332 328 328 328 326 322 321 319 319 320 317 313 311 304 292 282 268 260 250 237
159 163 169 112 185 255 358 319 177 74 75 63 30 25 350 330 322 321 325 324 328 330 335 336 330 327 326 327 328 322 317 318 318 317 315 310 307 303 290 275 263 253 227 204
134 162 158 122 162 80 44 88 69 43 72 37 17 2 343 323 321 321 321 323 326 328 328 329 326 323 325 327 326 317 314 317 317 316 313 308 303 300 287 266 247 232 218 204
69 352 98 129 120 117 107 82 54 45 41 19 7 345 335 326 324 324 323 327 326 329 328 328 327 324 324 326 322 315 315 316 315 311 311 307 301 296 280 264 245 228 213 201
340 7 120 84 112 111 95 60 36 41 27 7 353 347 338 333 328 323 327 327 327 327 329 326 323 322 322 325 322 322 322 322 315 311 311 303 296 283 259 231 220 205 201 210
1 138 161 161 74 38 87 65 39 26 11 358 346 340 341 337 333 334 327 324 329 329 329 328 324 324 325 326 324 328 330 330 320 310 311 303 295 265 197 131 97 86 119 165